Weather History for Sitka, AK

Change the Weather History Date:

Thursday, May 1, 2014

  Actual Average Record
Temperature  
Mean Temperature 54 °F -  
Max Temperature 68 °F 51 °F 68 °F (1989)
Min Temperature 41 °F 39 °F 32 °F (1954)
Degree Days  
Heating Degree Days 12    
Growing Degree Days 4 (Base 50)    
Moisture  
Dew Point 34 °F    
Average Humidity 53    
Maximum Humidity 86    
Minimum Humidity 20    
Precipitation  
Precipitation 0.00 in - - ()
Sea Level Pressure  
Sea Level Pressure 30.22 in    
Wind  
Wind Speed 3 mph (NE)    
Max Wind Speed 13 mph    
Max Gust Speed 22 mph    
Visibility 10 miles    
Events      
Averages and records for this station are not official NWS values.
T = Trace of Precipitation, MM = Missing Value Source: NWS Daily Summary

Daily Weather History Graph

Daily Weather History Graph

Search for Another Location

Airport:

Trip Planner

Search our weather history database for the weather conditions in past years. The results will help you decide how hot, cold, wet, or windy it might be!

Date:

Astronomy

May. 01, 2014 Rise Set
Actual Time 5:12 AM AKDT 8:45 PM AKDT
Civil Twilight 4:26 AM AKDT 9:32 PM AKDT
Nautical Twilight 3:20 AM AKDT 10:39 PM AKDT
Astronomical Twilight 1:31 AM AKDT 12:26 AM AKDT
Moon 6:54 AM AKDT (5/1) 11:38 PM AKDT (5/1)
Length of Visible Light 17h 06m
Length of Day
15h 33m
Waxing Crescent, 7% of the Moon is Illuminated
May 1
Waxing Crescent
May 6
First Quarter
May 14
Full
May 21
Last Quarter
May 28
New

Hourly Weather History & Observations

Time (AKDT) Temp. Windchill Dew Point Humidity Pressure Visibility Wind Dir Wind Speed Gust Speed Precip Events Conditions
12:53 AM 45.0 °F - 37.9 °F 76% 30.38 in 10.0 mi Calm Calm - N/A   Clear
1:53 AM 43.0 °F 41.3 °F 37.0 °F 80% 30.38 in 10.0 mi ENE 3.5 mph - N/A   Clear
2:53 AM 43.0 °F - 37.9 °F 82% 30.38 in 10.0 mi Calm Calm - N/A   Clear
3:53 AM 42.1 °F - 37.0 °F 82% 30.37 in 10.0 mi Calm Calm - N/A   Clear
4:53 AM 44.1 °F - 39.9 °F 85% 30.36 in 10.0 mi Calm Calm - N/A   Partly Cloudy
5:53 AM 41.0 °F 39.0 °F 37.0 °F 86% 30.35 in 10.0 mi East 3.5 mph - N/A   Mostly Cloudy
6:53 AM 44.1 °F - 39.0 °F 82% 30.34 in 10.0 mi Calm Calm - N/A   Partly Cloudy
7:53 AM 45.0 °F 43.5 °F 37.9 °F 76% 30.33 in 10.0 mi NW 3.5 mph - N/A   Partly Cloudy
8:53 AM 50.0 °F - 39.9 °F 68% 30.31 in 10.0 mi WNW 3.5 mph - N/A   Clear
9:53 AM 50.0 °F - 41.0 °F 71% 30.30 in 10.0 mi Calm Calm - N/A   Clear
10:53 AM 52.0 °F - 42.1 °F 69% 30.28 in 10.0 mi NW 3.5 mph - N/A   Clear
11:53 AM 55.0 °F - 41.0 °F 59% 30.27 in 10.0 mi NW 5.8 mph - N/A   Clear
12:53 PM 59.0 °F - 37.0 °F 44% 30.24 in 10.0 mi WNW 3.5 mph - N/A   Clear
1:53 PM 63.0 °F - 34.0 °F 34% 30.22 in 10.0 mi Calm Calm - N/A   Clear
2:53 PM 66.9 °F - 27.0 °F 22% 30.19 in 10.0 mi East 11.5 mph 20.7 mph N/A   Clear
3:53 PM 66.9 °F - 27.0 °F 22% 30.17 in 10.0 mi East 12.7 mph 21.9 mph N/A   Clear
4:53 PM 66.0 °F - 27.0 °F 23% 30.14 in 10.0 mi ESE 8.1 mph - N/A   Clear
5:53 PM 66.9 °F - 25.0 °F 21% 30.11 in 10.0 mi ENE 11.5 mph - N/A   Clear
6:53 PM 66.0 °F - 24.1 °F 20% 30.09 in 10.0 mi East 3.5 mph - N/A   Clear
7:53 PM 64.0 °F - 25.0 °F 23% 30.06 in 10.0 mi NNE 5.8 mph - N/A   Clear
8:53 PM 60.1 °F - 26.1 °F 27% 30.04 in 10.0 mi NE 4.6 mph - N/A   Clear
9:53 PM 57.0 °F - 30.0 °F 36% 30.04 in 10.0 mi Calm Calm - N/A   Clear
10:53 PM 55.0 °F - 33.1 °F 43% 30.02 in 10.0 mi Calm Calm - N/A   Clear
11:53 PM 57.0 °F - 27.0 °F 32% 30.00 in 10.0 mi Calm Calm - N/A   Clear